Location: Unspecified
(51.6250°N, 0.8230°E)
Time: 08:40:28
(UTC+01:00)

Okean 3 - Pass Details

Date: 13 August 2020
Orbit: 576 x 601 km, 82.5° (Epoch: 23 September)

Event Time Altitude Azimuth Distance (km) Brightness Sun altitude
Rises 00:14:48 0° 336° (NNW) 2,855 8.3 -23.0°
Reaches altitude 10° 00:17:36 10° 317° (NW) 1,950 6.9 -23.1°
Maximum altitude 00:20:27 18° 276° (W) 1,517 5.7 -23.2°
Enters shadow 00:21:41 16° 255° (WSW) 1,606 5.6 -23.2°
